TIANQI 36

导读 | 星芒AI

TIANQI 36 是中国天基气象观测系统的重要组成部分,主要用于气象监测和空间环境探测。该卫星搭载多种先进遥感仪器,能够提供高精度的气象数据,提升天气预报和气候研究的准确性。其发射进一步完善了中国的气象卫星网络,增强对极端天气事件的预警能力,对防灾减灾和国家安全具有重要意义。

基本信息
目录编号:
62368
目录名称:
TIANQI 36
国际标识:
2024-245D
轨道中心:
EARTH
卫星名称:
TIANQI 36
卫星全名:
TIANQI 36
卫星状态:
在轨 (已飞行361 天)
发射日期:
2024-12-19 UTC
国别 :
中国 (CN)
星等 :
--
轨道信息
数据来源 国际轨道数据
星历时间: 2025-12-15T05:21:35+0800
21小时前
查看轨道信息
半长轴: 7274.926km
偏心率: 0.0009897
轨道倾角: 44.986°
近地点辐角 224.424°
升交点赤经 61.506°
平近点角 135.580°
近地点: 889.591km
远地点: 903.991km
周期: 102.921分钟
每日圈数: 13.99136
详细信息
使用方式:
暂无
2D轨道图
3D轨道图
轨道高度分析图
轨道倾角分析图
轨道综合分析图
查看轨道综合分析图